Leesburg, VA

9:42 AM EDT on September 19, 2019 (GMT -0400)
Leesburg Executive

Weather History for KJYO - August, 2019

Change the Weather History Date:

Saturday, August 24, 2019

  Actual Average (KIAD) Record (KIAD)
Temperature  
Mean Temperature 66 °F -  
Max Temperature 77 °F 84 °F 97 °F (1998)
Min Temperature 55 °F 60 °F 46 °F (1971)
Cooling Degree Days 1    
Growing Degree Days 16 (Base 50)    
Moisture  
Dew Point 56 °F    
Average Humidity 71    
Maximum Humidity 100    
Minimum Humidity 41    
Precipitation  
Precipitation 0.00 in - - ()
Sea Level Pressure  
Sea Level Pressure 30.19 in    
Wind  
Wind Speed 5 mph (NNE)    
Max Wind Speed 14 mph    
Max Gust Speed 18 mph    
Visibility 10 miles    
Events      
Averages and records for this station are not official NWS values.
T = Trace of Precipitation, MM = Missing Value Source: NWS Daily Summary

Daily Weather History Graph

Daily Weather History Graph

Search for Another Location

Airport or City:

Astronomy

Aug. 24, 2019 Rise Set
Actual Time 6:31 AM EDT 7:53 PM EDT
Civil Twilight 6:03 AM EDT 8:20 PM EDT
Nautical Twilight 5:30 AM EDT 8:54 PM EDT
Astronomical Twilight 4:54 AM EDT 9:29 PM EDT
Moon 12:24 AM EDT (8/24) 3:05 PM EDT (8/24)
Length of Visible Light 14h 17m
Length of Day
13h 21m
Last Quarter, 39% of the Moon is Illuminated
Aug 24
Last Quarter
Aug 30
New
Sep 5
First Quarter
Sep 14
Full
Sep 21
Last Quarter

Hourly Weather History & Observations

Time (EDT) Temp. Dew Point Humidity Pressure Visibility Wind Dir Wind Speed Gust Speed Precip Events Conditions
12:15 AM 62.6 °F 60.8 °F 94% 30.14 in 10.0 mi NNW 3.5 mph - N/A   Clear
12:35 AM 62.6 °F 60.8 °F 94% 30.14 in 10.0 mi Calm Calm - N/A   Clear
12:55 AM 62.6 °F 60.8 °F 94% 30.13 in 10.0 mi North 3.5 mph - N/A   Clear
1:15 AM 60.8 °F 60.8 °F 100% 30.13 in 10.0 mi North 6.9 mph - N/A   Clear
1:35 AM 62.6 °F 60.8 °F 94% 30.12 in 10.0 mi North 6.9 mph - N/A   Clear
1:55 AM 60.8 °F 60.8 °F 100% 30.12 in 10.0 mi North 4.6 mph - N/A   Clear
2:15 AM 60.8 °F 60.8 °F 100% 30.13 in 10.0 mi North 4.6 mph - N/A   Clear
2:35 AM 60.8 °F 60.8 °F 100% 30.13 in 10.0 mi North 4.6 mph - N/A   Clear
2:55 AM 60.8 °F 60.8 °F 100% 30.13 in 10.0 mi North 5.8 mph - N/A   Clear
3:15 AM 60.8 °F 60.8 °F 100% 30.13 in 10.0 mi North 4.6 mph - N/A   Clear
3:35 AM 59.0 °F 59.0 °F 100% 30.14 in 10.0 mi North 3.5 mph - N/A   Clear
3:55 AM 59.0 °F 59.0 °F 100% 30.15 in 10.0 mi Calm Calm - N/A   Clear
4:15 AM 59.0 °F 59.0 °F 100% 30.15 in 10.0 mi Calm Calm - N/A   Clear
4:35 AM 59.0 °F 59.0 °F 100% 30.15 in 10.0 mi North 3.5 mph - N/A   Clear
4:55 AM 59.0 °F 59.0 °F 100% 30.15 in 10.0 mi NNE 3.5 mph - N/A   Clear
5:15 AM 59.0 °F 59.0 °F 100% 30.16 in 10.0 mi NNE 3.5 mph - N/A   Clear
5:35 AM 59.0 °F 59.0 °F 100% 30.17 in 10.0 mi North 3.5 mph - N/A   Clear
5:55 AM 57.2 °F 57.2 °F 100% 30.17 in 10.0 mi NNE 3.5 mph - N/A   Clear
6:15 AM 57.2 °F 57.2 °F 100% 30.18 in 10.0 mi NNE 3.5 mph - N/A   Clear
6:35 AM 55.4 °F 55.4 °F 100% 30.18 in 10.0 mi NNE 6.9 mph - N/A   Clear
6:55 AM 57.2 °F 55.4 °F 94% 30.19 in 10.0 mi North 5.8 mph - N/A   Clear
7:15 AM 55.4 °F 55.4 °F 100% 30.20 in 10.0 mi North 3.5 mph - N/A   Clear
7:35 AM 59.0 °F 57.2 °F 94% 30.21 in 10.0 mi NNE 3.5 mph - N/A   Clear
7:55 AM 60.8 °F 55.4 °F 82% 30.21 in 10.0 mi NNE 6.9 mph - N/A   Clear
8:15 AM 62.6 °F 55.4 °F 77% 30.21 in 10.0 mi NNE 11.5 mph 16.1 mph N/A   Clear
8:35 AM 62.6 °F 55.4 °F 77% 30.21 in 10.0 mi NNE 9.2 mph 18.4 mph N/A   Clear
8:55 AM 62.6 °F 55.4 °F 77% 30.22 in 10.0 mi NNE 11.5 mph 16.1 mph N/A   Clear
9:15 AM 64.4 °F 57.2 °F 77% 30.22 in 10.0 mi NNE 11.5 mph 16.1 mph N/A   Clear
9:35 AM 64.4 °F 57.2 °F 77% 30.23 in 10.0 mi NE 13.8 mph 17.3 mph N/A   Clear
9:55 AM 66.2 °F 57.2 °F 73% 30.23 in 10.0 mi NNE 8.1 mph - N/A   Clear
10:15 AM 68.0 °F 57.2 °F 68% 30.23 in 10.0 mi NE 8.1 mph - N/A   Clear
10:35 AM 69.8 °F 57.2 °F 64% 30.23 in 10.0 mi NNE 6.9 mph - N/A   Clear
10:55 AM 69.8 °F 57.2 °F 64% 30.22 in 10.0 mi NE 6.9 mph - N/A   Clear
11:15 AM 71.6 °F 55.4 °F 57% 30.22 in 10.0 mi North 5.8 mph - N/A   Clear
11:35 AM 71.6 °F 55.4 °F 57% 30.22 in 10.0 mi North 10.4 mph - N/A   Clear
11:55 AM 73.4 °F 53.6 °F 50% 30.21 in 10.0 mi NE 8.1 mph - N/A   Clear
12:15 PM 73.4 °F 55.4 °F 53% 30.21 in 10.0 mi NNE 5.8 mph - N/A   Clear
12:35 PM 73.4 °F 55.4 °F 53% 30.21 in 10.0 mi NNE 9.2 mph - N/A   Clear
12:55 PM 75.2 °F 53.6 °F 47% 30.21 in 10.0 mi NNE 9.2 mph 18.4 mph N/A   Scattered Clouds
1:15 PM 75.2 °F 51.8 °F 44% 30.21 in 10.0 mi ENE 5.8 mph - N/A   Scattered Clouds
1:55 PM 75.2 °F 51.8 °F 44% 30.20 in 10.0 mi Calm Calm - N/A   Scattered Clouds
2:15 PM 77.0 °F 53.6 °F 44% 30.20 in 10.0 mi NE 11.5 mph - N/A   Scattered Clouds
2:35 PM 75.2 °F 51.8 °F 44% 30.20 in 10.0 mi North 6.9 mph - N/A   Overcast
2:55 PM 77.0 °F 51.8 °F 41% 30.19 in 10.0 mi NNE 8.1 mph 16.1 mph N/A   Scattered Clouds
3:15 PM 75.2 °F 53.6 °F 47% 30.19 in 10.0 mi NE 8.1 mph - N/A   Mostly Cloudy
3:35 PM 75.2 °F 53.6 °F 47% 30.19 in 10.0 mi North 5.8 mph - N/A   Overcast
3:55 PM 75.2 °F 53.6 °F 47% 30.19 in 10.0 mi NNW 8.1 mph - N/A   Overcast
4:15 PM 73.4 °F 53.6 °F 50% 30.19 in 10.0 mi North 8.1 mph - N/A   Overcast
4:35 PM 73.4 °F 51.8 °F 47% 30.19 in 10.0 mi NNE 3.5 mph - N/A   Scattered Clouds
4:55 PM 73.4 °F 53.6 °F 50% 30.19 in 10.0 mi North 6.9 mph - N/A   Clear
5:15 PM 73.4 °F 53.6 °F 50% 30.18 in 10.0 mi NNE 5.8 mph - N/A   Clear
5:35 PM 77.0 °F 53.6 °F 44% 30.18 in 10.0 mi NE 4.6 mph - N/A   Scattered Clouds
5:55 PM 77.0 °F 51.8 °F 41% 30.18 in 10.0 mi NNE 9.2 mph - N/A   Clear
6:15 PM 77.0 °F 51.8 °F 41% 30.18 in 10.0 mi NNE 9.2 mph - N/A   Clear
6:35 PM 75.2 °F 53.6 °F 47% 30.18 in 10.0 mi North 8.1 mph - N/A   Clear
6:55 PM 73.4 °F 53.6 °F 50% 30.19 in 10.0 mi North 6.9 mph - N/A   Clear
7:15 PM 73.4 °F 53.6 °F 50% 30.19 in 10.0 mi NNE 5.8 mph - N/A   Clear
7:35 PM 73.4 °F 53.6 °F 50% 30.20 in 10.0 mi NE 5.8 mph - N/A   Clear
7:55 PM 71.6 °F 55.4 °F 57% 30.20 in 10.0 mi NE 3.5 mph - N/A   Clear
8:15 PM 71.6 °F 55.4 °F 57% 30.21 in 10.0 mi NNE 3.5 mph - N/A   Clear
8:35 PM 69.8 °F 55.4 °F 60% 30.21 in 10.0 mi NNE 3.5 mph - N/A   Scattered Clouds
8:55 PM 69.8 °F 57.2 °F 64% 30.21 in 10.0 mi NE 4.6 mph - N/A   Mostly Cloudy
9:15 PM 69.8 °F 57.2 °F 64% 30.22 in 10.0 mi NNE 5.8 mph - N/A   Overcast
9:35 PM 68.0 °F 57.2 °F 68% 30.23 in 10.0 mi NE 4.6 mph - N/A   Mostly Cloudy
9:55 PM 68.0 °F 57.2 °F 68% 30.23 in 10.0 mi NNE 3.5 mph - N/A   Mostly Cloudy
10:15 PM 68.0 °F 57.2 °F 68% 30.23 in 10.0 mi NNE 3.5 mph - N/A   Overcast
10:35 PM 66.2 °F 57.2 °F 73% 30.23 in 10.0 mi NNE 5.8 mph - N/A   Mostly Cloudy
10:55 PM 66.2 °F 55.4 °F 68% 30.24 in 10.0 mi NNE 5.8 mph - N/A   Scattered Clouds
11:15 PM 66.2 °F 55.4 °F 68% 30.24 in 10.0 mi NNE 3.5 mph - N/A   Mostly Cloudy
11:35 PM 66.2 °F 57.2 °F 73% 30.24 in 10.0 mi NNE 4.6 mph - N/A   Overcast
11:55 PM 66.2 °F 57.2 °F 73% 30.24 in 10.0 mi NNE 4.6 mph - N/A   Overcast